Location: PACMO
(41.3967°N, 90.3760°W)
Time: 09:46:12
(UTC-05:00)

Amateur Radio Satellites - All Passes

Search period start: 23 April 2014 09:16
Search period end: 24 April 2014 09:16
Location: PACMO, 41.3967°N, 90.3760°W

Satellite Date Start Highest point End Downlink Frequencies (MHz)
Time Altitude Azimuth
PANSAT 23 Apr 09:17:41 09:19:08 12° 184° (S) 09:20:34 not established
RS-15 23 Apr 09:21:36 09:31:09 31° 328° (NNW) 09:40:35 29.354 - 29.394 USB, Beacon 29.352 USB
Oscar 11 23 Apr 09:54:17 09:57:16 18° 93° (E) 10:00:15 145.825 FM, Beacon 2401.500 USB
KITSAT 1 23 Apr 10:03:27 10:10:28 31° 41° (NE) 10:17:24 435.175 FM
Sapphire 23 Apr 10:04:46 10:09:49 41° 248° (WSW) 10:14:50 437.095 MHz 1200 baud AX-25 AFSK
HO-68 23 Apr 10:18:17 10:25:29 73° 104° (ESE) 10:32:40 435.675 MHz FM
Saudisat 1A 23 Apr 10:43:32 10:47:59 73° 304° (NW) 10:52:28 436.775 MHz
PCSat 23 Apr 10:50:44 10:53:54 16° 256° (WSW) 10:57:03 145.825 MHz
Oscar 10/S400 23 Apr 11:07:13 12:46:23 48° 241° (WSW) 18:25:42 145.825 - 145.975 CW/USB, Beacon 145.810 USB
Oscar 11 23 Apr 11:29:32 11:33:38 40° 289° (WNW) 11:37:43 145.825 FM, Beacon 2401.500 USB
FUNcube-1 23 Apr 11:31:48 11:36:05 68° 101° (ESE) 11:40:28 145.950 - 145.970 MHz USB
RS-15 23 Apr 11:40:47 11:48:24 20° 4° (N) 11:56:01 29.354 - 29.394 USB, Beacon 29.352 USB
KITSAT 1 23 Apr 11:58:31 12:06:36 74° 243° (WSW) 12:14:36 435.175 FM
HO-68 23 Apr 12:07:08 12:12:30 24° 303° (WNW) 12:17:52 435.675 MHz FM
Saudisat 1A 23 Apr 12:26:31 12:28:23 12° 324° (NW) 12:30:15 436.775 MHz
AO-27 23 Apr 12:45:23 12:47:35 13° 59° (ENE) 12:49:48 436.795 MHz FM
Oscar 19 23 Apr 12:47:46 12:51:49 24° 65° (ENE) 12:55:53 437.125 CW, 437.150 USB
ITAMSAT 1 23 Apr 12:54:09 12:57:02 15° 60° (ENE) 12:59:55 435.822 SSB
Oscar 16 23 Apr 12:56:21 13:00:47 30° 67° (ENE) 13:05:16 437.025 USB, Beacon 2401.1428
ISS 23 Apr 13:09:54 13:12:08 17° 132° (SE) 13:14:23 145.800 FM
FUNcube-1 23 Apr 13:10:24 13:11:59 12° 297° (WNW) 13:13:34 145.950 - 145.970 MHz USB
Uribyol 2 23 Apr 13:39:08 13:43:55 40° 69° (ENE) 13:48:42 436.500 FM
TMSAT-1 23 Apr 13:48:28 13:49:45 11° 57° (ENE) 13:51:02 436.925 FM
AO-Echo 23 Apr 13:53:45 13:58:35 41° 70° (ENE) 14:03:19 ?
RS-15 23 Apr 13:55:11 14:05:10 38° 38° (NE) 14:15:14 29.354 - 29.394 USB, Beacon 29.352 USB
KITSAT 1 23 Apr 13:57:11 14:00:34 13° 262° (W) 14:03:57 435.175 FM
SO-50 23 Apr 14:16:59 14:20:59 33° 115° (ESE) 14:25:02 436.795 FM
AO-27 23 Apr 14:21:10 14:26:22 87° 256° (WSW) 14:31:35 436.795 MHz FM
Oscar 19 23 Apr 14:26:01 14:30:53 43° 261° (W) 14:35:49 437.125 CW, 437.150 USB
ITAMSAT 1 23 Apr 14:30:45 14:35:55 73° 257° (WSW) 14:41:06 435.822 SSB
Oscar 16 23 Apr 14:35:28 14:40:03 33° 264° (W) 14:44:42 437.025 USB, Beacon 2401.1428
Gurwin Techsat 1B 23 Apr 14:38:31 14:43:29 43° 70° (ENE) 14:48:29 435.225 FM
ISS 23 Apr 14:45:16 14:48:33 57° 328° (NNW) 14:51:52 145.800 FM
Uribyol 2 23 Apr 15:19:19 15:23:30 25° 265° (W) 15:27:42 436.500 FM
OPAL 23 Apr 15:22:59 15:27:49 37° 100° (E) 15:32:36 ?
TMSAT-1 23 Apr 15:23:30 15:28:46 79° 75° (ENE) 15:34:05 436.925 FM
AO-Echo 23 Apr 15:33:18 15:37:28 24° 266° (W) 15:41:33 ?
JAS-1B 23 Apr 15:35:26 15:43:03 60° 71° (ENE) 15:49:26 435.800 - 435.900 CW/SSB
AO-7 23 Apr 15:38:10 15:45:48 44° 62° (ENE) 15:53:29 29.400 - 29.500 MHz
Uosat F 23 Apr 15:54:30 15:59:25 58° 72° (ENE) 16:04:21 435.120 FM
SO-50 23 Apr 15:57:39 16:01:34 29° 313° (NW) 16:05:32 436.795 FM
RS-15 23 Apr 16:07:34 16:18:28 74° 243° (WSW) 16:29:40 29.354 - 29.394 USB, Beacon 29.352 USB
UOSAT-12 23 Apr 16:15:04 16:19:00 29° 114° (ESE) 16:23:00 437.025 FM, 437.400 FM
Gurwin Techsat 1B 23 Apr 16:19:23 16:23:37 24° 266° (W) 16:27:52 435.225 FM
ISS 23 Apr 16:23:30 16:25:50 17° 347° (NNW) 16:28:10 145.800 FM
OPAL 23 Apr 17:02:05 17:06:33 29° 296° (WNW) 17:10:59 ?
TMSAT-1 23 Apr 17:07:05 17:09:17 13° 271° (W) 17:11:30 436.925 FM
Hamsat 23 Apr 17:23:36 17:26:21 17° 65° (ENE) 17:29:07 145.90 MHz
JAS-1B 23 Apr 17:27:45 17:33:52 25° 265° (W) 17:39:17 435.800 - 435.900 CW/SSB
AO-7 23 Apr 17:30:48 17:38:33 44° 260° (W) 17:46:22 29.400 - 29.500 MHz
Saudisat 1A 23 Apr 17:32:15 17:34:35 14° 38° (NE) 17:36:56 436.775 MHz
Uosat F 23 Apr 17:35:28 17:38:34 16° 268° (W) 17:41:41 435.120 FM
JAS-2 23 Apr 17:36:09 17:37:35 11° 58° (ENE) 17:38:59 435.800 - 435.900 CW/SSB, 435.910 FM
UOSAT-12 23 Apr 17:54:53 17:59:03 34° 312° (NW) 18:03:19 437.025 FM, 437.400 FM
ISS 23 Apr 18:01:28 18:03:33 15° 8° (N) 18:05:37 145.800 FM
RS-15 23 Apr 18:23:08 18:28:49 16° 262° (W) 18:34:37 29.354 - 29.394 USB, Beacon 29.352 USB
SO-67 23 Apr 18:54:54 18:57:52 27° 71° (ENE) 19:00:52 435.3500 MHz FM
Hamsat 23 Apr 18:58:00 19:02:00 42° 262° (W) 19:06:04 145.90 MHz
HO-68 23 Apr 19:05:44 19:07:21 11° 48° (NE) 19:08:58 435.675 MHz FM
Saudisat 1A 23 Apr 19:10:25 19:14:51 90° 57° (ENE) 19:19:14 436.775 MHz
JAS-2 23 Apr 19:16:18 19:21:59 86° 75° (ENE) 19:27:15 435.800 - 435.900 CW/SSB, 435.910 FM
ISS 23 Apr 19:37:51 19:40:59 36° 27° (NNE) 19:44:07 145.800 FM
STRAND 1 23 Apr 19:47:04 19:52:11 77° 103° (ESE) 19:57:17 ?
SO-67 23 Apr 20:28:44 20:31:03 17° 267° (W) 20:33:22 435.3500 MHz FM
HO-68 23 Apr 20:46:36 20:53:30 55° 68° (ENE) 21:00:27 435.675 MHz FM
Oscar 11 23 Apr 20:50:20 20:52:50 15° 64° (ENE) 20:55:20 145.825 FM, Beacon 2401.500 USB
JAS-2 23 Apr 21:06:26 21:07:40 11° 270° (W) 21:08:54 435.800 - 435.900 CW/SSB, 435.910 FM
ISS 23 Apr 21:14:41 21:17:39 30° 224° (SW) 21:20:37 145.800 FM
STRAND 1 23 Apr 21:28:09 21:30:43 14° 300° (WNW) 21:33:17 ?
MaSat-1 23 Apr 21:29:55 21:32:18 26° 299° (WNW) 21:34:32 437.345 MHz
Oscar 11 23 Apr 22:24:25 22:28:36 51° 260° (W) 22:32:50 145.825 FM, Beacon 2401.500 USB
FUNcube-1 23 Apr 22:28:39 22:32:43 53° 74° (ENE) 22:36:47 145.950 - 145.970 MHz USB
HO-68 23 Apr 22:35:33 22:41:30 28° 265° (W) 22:47:31 435.675 MHz FM
SO-50 23 Apr 22:48:11 22:52:25 34° 49° (NE) 22:56:42 436.795 FM
Sapphire 23 Apr 23:04:08 23:08:29 25° 108° (ESE) 23:12:52 437.095 MHz 1200 baud AX-25 AFSK
PCSat 23 Apr 23:47:20 23:52:40 65° 115° (ESE) 23:58:02 145.825 MHz
FUNcube-1 24 Apr 00:07:46 00:09:28 12° 269° (W) 00:11:10 145.950 - 145.970 MHz USB
SO-50 24 Apr 00:28:51 00:32:55 30° 246° (WSW) 00:37:01 436.795 FM
KITSAT 1 24 Apr 00:35:42 00:39:59 15° 100° (E) 00:44:15 435.175 FM
UOSAT-12 24 Apr 00:44:10 00:48:20 30° 47° (NE) 00:52:27 437.025 FM, 437.400 FM
Sapphire 24 Apr 00:46:26 00:51:37 46° 305° (NW) 00:56:51 437.095 MHz 1200 baud AX-25 AFSK
PCSat 24 Apr 01:32:26 01:36:33 22° 315° (NW) 01:40:42 145.825 MHz
Uribyol 2 24 Apr 01:53:19 01:55:54 14° 90° (E) 01:58:29 436.500 FM
AO-Echo 24 Apr 02:03:25 02:04:51 11° 89° (E) 02:06:17 ?
UOSAT-12 24 Apr 02:24:13 02:28:32 36° 245° (WSW) 02:32:49 437.025 FM, 437.400 FM
KITSAT 1 24 Apr 02:25:59 02:34:05 81° 118° (ESE) 02:42:14 435.175 FM
AO-27 24 Apr 02:34:30 02:39:10 33° 97° (E) 02:43:49 436.795 MHz FM
Oscar 19 24 Apr 02:37:11 02:42:23 68° 102° (ESE) 02:47:33 437.125 CW, 437.150 USB
OPAL 24 Apr 02:37:55 02:42:54 66° 71° (ENE) 02:48:00 ?
ITAMSAT 1 24 Apr 02:43:45 02:48:37 40° 98° (E) 02:53:27 435.822 SSB
Oscar 16 24 Apr 02:46:21 02:51:35 87° 104° (ESE) 02:56:48 437.025 USB, Beacon 2401.1428
Gurwin Techsat 1B 24 Apr 02:55:43 02:59:05 17° 91° (E) 03:02:27 435.225 FM
JAS-1B 24 Apr 03:23:22 03:24:24 10° 89° (E) 03:25:25 435.800 - 435.900 CW/SSB
Uribyol 2 24 Apr 03:30:43 03:35:53 71° 286° (WNW) 03:41:03 436.500 FM
AO-Echo 24 Apr 03:39:27 03:44:11 72° 285° (WNW) 03:48:51 ?
TMSAT-1 24 Apr 03:39:42 03:44:23 31° 96° (E) 03:49:02 436.925 FM
AO-7 24 Apr 03:43:31 03:45:25 11° 86° (E) 03:47:19 29.400 - 29.500 MHz
Uosat F 24 Apr 04:03:20 04:06:37 17° 92° (E) 04:09:52 435.120 FM
AO-27 24 Apr 04:14:07 04:18:36 30° 293° (WNW) 04:23:04 436.795 MHz FM
Oscar 19 24 Apr 04:18:00 04:21:10 16° 299° (WNW) 04:24:19 437.125 CW, 437.150 USB
OPAL 24 Apr 04:19:27 04:22:15 15° 268° (W) 04:25:06 ?
KITSAT 1 24 Apr 04:23:34 04:30:23 29° 320° (NW) 04:37:13 435.175 FM
ITAMSAT 1 24 Apr 04:23:41 04:27:54 26° 295° (WNW) 04:32:06 435.822 SSB
RS-15 24 Apr 04:24:45 04:30:46 16° 98° (E) 04:36:39 29.354 - 29.394 USB, Beacon 29.352 USB
Oscar 16 24 Apr 04:27:58 04:30:11 13° 301° (WNW) 04:32:25 437.025 USB, Beacon 2401.1428
Gurwin Techsat 1B 24 Apr 04:34:13 04:39:28 61° 288° (WNW) 04:44:40 435.225 FM
JAS-1B 24 Apr 05:10:06 05:15:48 89° 285° (WNW) 05:21:56 435.800 - 435.900 CW/SSB
TMSAT-1 24 Apr 05:19:34 05:24:16 33° 292° (WNW) 05:28:58 436.925 FM
STRAND 1 24 Apr 05:26:57 05:29:41 15° 60° (ENE) 05:32:25 ?
AO-7 24 Apr 05:31:24 05:39:41 66° 105° (ESE) 05:47:57 29.400 - 29.500 MHz
Uosat F 24 Apr 05:40:51 05:45:43 54° 288° (WNW) 05:50:34 435.120 FM
MaSat-1 24 Apr 05:51:39 05:54:34 38° 62° (ENE) 05:57:59 437.345 MHz
KITSAT 1 24 Apr 06:26:21 06:29:09 12° 349° (N) 06:31:57 435.175 FM
RS-15 24 Apr 06:29:53 06:41:10 75° 118° (ESE) 06:52:06 29.354 - 29.394 USB, Beacon 29.352 USB
Hamsat 24 Apr 06:43:45 06:47:42 33° 96° (E) 06:51:38 145.90 MHz
PCSat 24 Apr 06:54:29 06:55:50 11° 35° (NE) 06:57:12 145.825 MHz
STRAND 1 24 Apr 07:03:09 07:08:15 74° 257° (WSW) 07:13:22 ?
JAS-1B 24 Apr 07:03:36 07:05:43 12° 303° (WNW) 07:07:53 435.800 - 435.900 CW/SSB
PANSAT 24 Apr 07:14:20 07:15:10 11° 172° (S) 07:16:00 not established
AO-7 24 Apr 07:25:00 07:31:53 30° 304° (WNW) 07:38:48 29.400 - 29.500 MHz
MaSat-1 24 Apr 07:31:34 07:32:45 11° 252° (WSW) 07:34:00 437.345 MHz
Sapphire 24 Apr 07:51:21 07:55:43 24° 47° (NE) 08:00:04 437.095 MHz 1200 baud AX-25 AFSK
SO-67 24 Apr 07:52:00 07:55:12 32° 97° (E) 07:58:21 435.3500 MHz FM
JAS-2 24 Apr 08:08:40 08:14:14 75° 103° (ESE) 08:20:27 435.800 - 435.900 CW/SSB, 435.910 FM
Hamsat 24 Apr 08:20:05 08:23:30 23° 292° (WNW) 08:26:55 145.90 MHz
KITSAT 1 24 Apr 08:24:48 08:28:57 15° 21° (NNE) 08:33:06 435.175 FM
PCSat 24 Apr 08:35:15 08:40:34 52° 56° (NE) 08:45:50 145.825 MHz
RS-15 24 Apr 08:44:24 08:54:30 38° 322° (NW) 09:04:28 29.354 - 29.394 USB, Beacon 29.352 USB
PANSAT 24 Apr 08:53:12 08:54:35 12° 185° (S) 08:55:59 not established
